Wetbulb
43.77 44.00 44.02 43.35 43.49 44.29 44.00 44.14 43.13 42.51 41.96 42.03 42.45 42.03 42.56 42.97 41.16 41.40 40.03 40.72 41.10 40.36 40.65 41.04 42.04 41.87 42.39 43.20 43.27 44.83 45.24 45.17
43.46 43.30 43.35 42.57 42.52 42.77 42.69 42.19 41.54 41.38 40.74 39.65 39.69 39.27 40.27 39.54 39.62 39.18 38.82 39.15 39.47 39.05 39.55 39.48 39.89 39.27 39.53 40.63 41.72 42.39 44.01 45.94
42.87 42.23 41.80 41.75 41.35 41.44 41.10 40.51 40.65 40.30 40.15 39.60 38.67 38.41 38.55 38.32 38.07 37.51 38.10 37.89 38.35 38.20 38.64 37.66 37.78 37.69 38.49 39.41 40.15 40.16 42.23 44.35
41.66 42.74 41.08 40.65 40.15 39.39 40.19 40.15 39.80 39.91 39.28 38.64 37.67 37.79 37.47 36.22 35.66 36.07 36.28 37.78 37.85 37.83 37.55 36.65 35.58 36.80 36.95 38.12 39.38 40.32 40.05 43.08
41.97 41.42 39.81 39.64 39.40 39.51 39.44 39.71 38.89 39.48 38.38 36.89 35.02 34.42 33.34 34.51 34.99 35.66 35.72 36.81 36.63 36.52 36.46 35.22 35.17 35.69 35.80 36.37 38.50 38.34 39.69 39.51
39.25 39.25 39.04 38.85 38.91 38.27 38.21 38.05 38.20 37.99 36.73 35.99 34.56 33.83 34.64 34.70 34.51 34.29 34.53 35.16 35.93 34.74 34.85 32.99 33.77 34.11 34.68 35.64 36.66 38.09 39.66 39.84
40.09 40.02 40.00 38.13 37.32 37.05 35.75 36.01 36.71 36.77 35.65 34.51 33.21 32.23 32.46 31.77 31.89 31.73 32.99 34.04 34.44 33.85 34.15 32.42 33.12 32.76 33.27 34.34 35.31 35.80 36.92 38.38
37.66 37.52 36.04 36.25 35.56 35.16 34.77 34.40 34.94 35.37 34.22 33.12 32.40 32.63 31.19 30.27 29.70 29.94 30.47 31.43 32.02 31.83 32.24 31.88 32.13 32.21 32.97 33.51 33.45 33.67 34.62 34.72
35.49 34.39 33.84 34.60 35.31 33.83 32.67 33.34 33.78 34.04 33.19 31.84 31.66 31.19 30.17 30.28 29.54 29.32 29.41 29.71 31.51 31.89 30.21 30.84 32.01 31.53 32.86 32.22 31.54 32.09 32.44 32.56
34.55 34.17 33.94 33.48 32.89 31.68 31.59 32.16 32.82 33.62 31.83 30.36 29.94 30.24 29.50 28.33 27.71 27.65 27.70 28.87 29.84 29.11 28.95 28.80 29.99 29.38 30.64 30.70 30.29 29.69 31.02 30.85
34.91 33.29 31.87 31.89 32.39 31.09 29.74 30.43 30.00 31.74 30.09 28.78 28.99 29.30 29.51 29.23 28.63 27.12 26.67 26.97 27.69 27.27 26.71 27.34 27.58 27.76 28.32 28.65 28.24 28.38 28.65 29.83
32.88 32.04 31.17 30.45 28.67 31.65 28.78 28.12 26.40 28.79 31.80 30.81 29.32 28.48 29.16 29.45 29.74 28.60 27.36 26.72 26.78 26.31 26.43 26.20 25.83 26.47 26.06 26.09 26.22 25.91 25.32 26.25
30.81 28.74 29.19 28.59 29.52 30.25 30.97 30.50 29.84 28.79 27.78 30.76 31.34 29.51 26.52 28.56 30.06 30.16 28.76 25.89 26.16 25.48 25.63 25.43 25.60 24.72 24.48 23.23 22.81 23.35 22.61 22.83
29.58 27.96 25.55 24.99 28.01 27.55 28.89 32.13 32.64 31.11 30.23 28.60 29.67 31.79 26.66 22.29 25.63 29.24 27.21 24.13 21.85 23.37 23.45 23.24 23.58 21.89 22.54 21.45 21.16 20.89 20.66 20.89
30.50 26.56 25.31 23.16 27.36 29.58 30.32 31.13 31.74 32.59 30.96 30.18 26.49 27.89 31.16 30.15 26.89 28.25 27.63 27.13 21.20 21.03 21.49 21.57 22.88 21.92 20.49 21.81 19.96 19.33 19.10 19.64
30.56 29.37 27.97 28.06 30.17 30.30 30.00 30.99 32.00 31.68 31.46 31.38 30.89 30.77 31.03 30.58 29.76 28.98 28.30 26.96 25.64 21.65 20.83 20.69 21.70 25.47 26.07 22.26 21.59 19.48 19.24 18.84
31.82 30.88 29.77 28.84 29.73 30.37 32.57 32.10 32.23 32.43 30.94 30.54 31.39 31.52 30.72 29.28 28.38 27.73 26.48 25.21 24.43 23.77 22.24 22.08 21.53 26.36 29.03 27.43 23.30 20.00 19.80 19.77
32.54 31.51 30.02 29.60 30.92 32.38 30.64 31.75 32.63 31.09 30.36 31.36 31.54 31.26 30.06 28.31 28.21 26.91 24.95 24.13 23.53 22.72 22.12 21.92 22.12 23.77 27.89 27.78 25.76 21.45 19.95 20.27
33.05 30.75 30.22 30.80 30.68 31.22 31.24 31.57 30.83 29.98 29.37 29.82 30.28 29.38 28.36 28.15 27.44 25.70 24.78 24.31 23.01 22.89 22.89 22.42 22.58 24.05 26.09 25.86 24.82 22.22 20.35 20.47
MSLP
1017.88 1018.42 1019.11 1019.66 1019.95 1020.49 1020.80 1021.06 1021.14 1021.00 1020.68 1020.44 1020.35 1020.29 1020.20 1020.30 1020.34 1020.52 1020.68 1020.42 1020.27 1019.96 1019.57 1019.28 1018.79 1018.32 1017.76 1017.26 1016.59 1015.91 1015.24 1014.29
1017.92 1018.65 1019.17 1019.78 1020.34 1020.84 1021.32 1021.47 1021.53 1021.32 1021.01 1020.93 1020.84 1020.96 1021.01 1021.10 1021.04 1021.09 1020.90 1020.76 1020.49 1020.18 1019.87 1019.58 1019.25 1018.76 1018.18 1017.56 1016.80 1016.01 1015.11 1014.34
1018.32 1019.08 1019.53 1020.00 1020.55 1021.03 1021.52 1021.77 1022.12 1021.86 1021.62 1021.58 1021.50 1021.45 1021.65 1021.69 1021.68 1021.51 1021.22 1020.92 1020.76 1020.44 1020.15 1019.96 1019.54 1018.96 1018.31 1017.60 1017.01 1016.23 1015.38 1014.71
1018.34 1019.24 1019.97 1020.26 1020.95 1021.37 1021.52 1021.96 1022.17 1022.36 1022.23 1022.22 1022.15 1022.04 1022.15 1022.23 1022.13 1021.89 1021.68 1021.36 1021.19 1020.98 1020.66 1020.23 1019.87 1019.22 1018.66 1017.85 1017.09 1016.32 1015.33 1014.64
1018.34 1019.36 1020.33 1020.90 1021.35 1021.49 1021.78 1022.13 1022.27 1022.91 1022.79 1022.82 1022.88 1022.94 1022.95 1023.08 1022.88 1022.62 1022.31 1021.88 1021.56 1021.42 1020.99 1020.60 1020.06 1019.51 1018.86 1018.13 1017.19 1016.66 1015.88 1014.74
1018.72 1019.70 1020.50 1021.20 1021.63 1022.04 1022.09 1022.31 1022.70 1023.43 1023.54 1023.44 1023.51 1023.60 1023.60 1023.70 1023.48 1023.01 1022.56 1022.26 1021.97 1021.73 1021.30 1020.89 1020.22 1019.74 1019.01 1018.26 1017.22 1016.45 1015.78 1015.00
1019.09 1019.96 1020.67 1021.56 1022.16 1022.37 1022.49 1022.85 1023.36 1023.72 1023.94 1023.98 1024.17 1024.41 1024.34 1024.19 1023.86 1023.50 1023.05 1022.60 1022.33 1022.13 1021.39 1021.01 1020.44 1019.99 1019.20 1018.27 1017.55 1016.78 1016.04 1015.22
1019.80 1020.62 1021.44 1022.03 1022.68 1023.00 1023.22 1023.51 1023.93 1024.11 1024.32 1024.48 1024.65 1024.86 1024.87 1024.59 1024.34 1024.02 1023.50 1023.22 1022.70 1022.36 1021.84 1021.34 1020.79 1020.26 1019.44 1018.64 1018.05 1017.28 1016.44 1015.63
1020.53 1021.30 1021.82 1022.64 1022.96 1023.53 1023.93 1024.28 1024.43 1024.50 1024.80 1024.98 1025.02 1025.13 1025.05 1025.03 1024.81 1024.56 1024.24 1023.81 1023.31 1022.81 1022.56 1022.04 1021.29 1020.83 1019.87 1019.17 1018.77 1017.88 1017.05 1016.12
1021.15 1021.72 1022.49 1023.19 1023.65 1024.07 1024.48 1024.82 1024.86 1024.96 1025.23 1025.48 1025.43 1025.40 1025.41 1025.53 1025.37 1025.14 1024.78 1024.43 1023.74 1023.44 1023.17 1022.69 1022.05 1021.58 1020.79 1020.03 1019.28 1018.48 1017.62 1016.69
1021.72 1022.53 1023.29 1023.80 1024.50 1024.76 1025.19 1025.19 1025.43 1025.46 1025.76 1025.79 1025.82 1025.77 1025.77 1025.69 1025.67 1025.50 1025.25 1024.90 1024.58 1024.08 1023.76 1023.16 1022.40 1022.02 1021.42 1020.82 1020.13 1019.46 1018.54 1017.42
1022.27 1023.03 1023.95 1024.30 1024.78 1025.25 1025.76 1025.74 1025.83 1025.89 1025.88 1026.06 1026.06 1026.04 1025.92 1025.86 1025.86 1025.76 1025.61 1025.36 1024.97 1024.70 1024.20 1023.30 1022.84 1022.76 1022.45 1021.87 1021.07 1020.28 1019.54 1018.64
1023.02 1023.46 1024.04 1024.78 1025.12 1025.45 1025.87 1025.90 1025.73 1026.01 1026.16 1026.23 1026.18 1026.14 1025.99 1026.04 1026.04 1025.82 1025.82 1025.87 1025.40 1025.48 1024.54 1023.88 1023.64 1023.38 1023.20 1022.72 1022.11 1021.42 1020.77 1019.85
1022.94 1023.82 1024.29 1024.82 1025.37 1025.45 1025.65 1025.70 1025.55 1025.87 1026.29 1026.18 1026.15 1026.12 1026.08 1025.95 1026.00 1025.90 1026.15 1026.08 1026.29 1026.03 1025.33 1024.58 1024.25 1023.84 1023.82 1023.69 1023.34 1022.67 1021.95 1021.36
1022.33 1023.69 1024.42 1024.91 1025.26 1025.57 1025.63 1025.55 1025.46 1025.64 1026.11 1025.97 1025.92 1025.93 1026.12 1026.03 1025.98 1026.07 1026.11 1026.20 1026.75 1026.65 1026.00 1025.43 1024.84 1024.24 1024.22 1024.25 1024.00 1023.64 1023.00 1022.29
1021.66 1023.07 1024.03 1024.56 1025.00 1025.25 1025.14 1025.24 1025.21 1025.32 1025.75 1025.94 1026.00 1025.90 1026.02 1026.17 1026.31 1026.43 1026.35 1026.41 1026.64 1026.77 1026.42 1026.11 1025.57 1024.66 1024.39 1024.53 1024.50 1024.39 1023.73 1022.92
1020.85 1022.09 1023.12 1023.80 1024.21 1024.46 1024.58 1024.81 1025.03 1025.18 1025.38 1025.70 1025.79 1025.96 1026.19 1026.40 1026.57 1026.80 1026.93 1027.04 1027.02 1026.80 1026.75 1026.64 1026.14 1025.44 1024.58 1024.74 1024.96 1024.91 1024.66 1023.98
1020.10 1021.17 1022.11 1022.81 1023.25 1023.48 1023.88 1024.21 1024.48 1024.96 1025.43 1025.67 1025.94 1026.19 1026.47 1026.70 1026.92 1027.17 1027.39 1027.46 1027.45 1027.29 1027.33 1027.15 1026.78 1026.32 1025.75 1025.31 1025.24 1025.47 1025.19 1024.87
1019.62 1020.65 1021.58 1022.13 1022.62 1023.21 1023.74 1024.10 1024.65 1025.24 1025.71 1026.03 1026.30 1026.60 1026.89 1027.11 1027.28 1027.45 1027.62 1027.76 1027.84 1027.88 1027.80 1027.78 1027.46 1027.00 1026.68 1026.42 1026.13 1026.04 1025.86 1025.60
Wind_Speed
11 10 9 8 8 7 7 5 8 7 5 4 5 5 5 8 7 9 12 9 11 8 7 9 9 8 9 9 12 10 10 10
11 9 9 9 8 8 8 9 8 6 6 7 6 6 6 7 8 12 11 10 10 9 7 8 9 9 10 11 10 12 9 10
11 9 8 8 8 8 8 8 8 8 7 6 4 4 6 6 7 8 10 11 11 11 10 9 10 9 11 11 10 9 8 8
12 10 9 9 8 8 7 8 9 8 8 6 4 4 5 7 8 8 9 12 11 11 12 10 10 9 8 10 10 12 9 8
12 10 9 9 7 7 8 9 8 8 7 7 7 6 7 8 7 8 9 11 11 12 12 11 10 8 10 9 10 10 9 10
11 10 10 8 7 6 7 8 8 7 8 9 6 7 6 6 6 9 10 10 11 12 11 11 11 8 10 11 11 10 8 8
11 9 10 8 7 7 7 8 8 8 9 9 9 8 7 6 7 7 7 8 8 13 12 11 11 11 11 10 11 12 10 9
8 8 8 8 8 8 7 8 7 7 8 8 7 7 6 5 6 7 8 8 8 12 14 12 11 13 12 11 11 11 11 10
8 9 8 8 9 9 8 8 7 7 8 7 6 6 4 6 7 6 6 7 8 12 11 12 14 15 12 12 9 9 11 10
10 9 8 8 8 9 8 6 6 8 8 6 7 6 7 6 6 6 5 6 8 10 11 12 13 14 14 13 10 13 12 12
9 9 7 6 6 7 7 6 6 5 8 6 5 5 5 5 4 5 8 7 8 10 10 11 13 14 15 14 11 14 13 11
8 9 6 5 3 6 6 6 5 4 5 4 5 4 4 4 4 5 5 7 9 10 10 12 14 13 14 13 13 15 16 16
7 7 7 5 6 5 6 5 6 3 1 3 3 3 3 4 4 4 4 6 8 8 11 12 11 13 13 14 15 15 16 17
8 5 5 5 5 3 3 3 6 5 2 1 0 2 2 3 2 2 3 4 4 8 10 12 10 7 12 13 12 13 14 15
10 6 5 4 4 4 4 2 2 6 4 1 3 2 3 1 4 5 4 4 4 8 10 11 11 7 6 11 13 13 12 13
11 10 7 6 6 6 6 4 4 5 6 5 3 5 6 6 7 8 9 9 8 7 9 10 10 11 9 10 11 13 15 15
14 12 12 10 10 8 8 7 6 4 5 5 5 5 6 6 7 8 8 9 10 10 12 12 12 10 20 20 15 12 13 15
14 14 12 10 10 8 7 6 7 6 6 5 5 6 6 6 8 8 8 9 8 10 10 11 13 13 23 21 20 11 12 13
12 11 9 8 7 8 7 6 7 7 6 6 6 7 7 6 6 7 6 6 7 8 9 10 11 14 23 22 20 11 11 13
Wind_Direction
111 96 83 84 74 64 64 49 31 24 9 27 31 16 12 38 27 37 23 15 14 0 6 350 345 334 328 326 316 312 303 302
111 108 99 96 71 62 48 51 29 22 17 27 27 23 34 33 27 27 13 15 11 357 1 349 342 336 324 317 315 313 313 311
120 115 105 96 86 74 65 69 42 31 34 23 20 16 40 31 21 14 13 9 4 2 356 351 342 327 320 318 314 308 299 295
127 120 111 97 82 75 79 75 57 42 37 24 17 26 37 26 16 15 7 11 3 6 356 350 341 330 317 316 318 313 309 307
121 115 101 100 96 76 71 78 61 58 47 38 33 37 31 25 18 8 5 7 7 8 357 353 342 335 333 323 322 307 303 305
108 110 110 111 99 94 76 90 72 59 52 46 34 37 38 23 14 11 9 5 9 5 5 353 352 344 334 328 324 321 304 289
109 113 114 100 86 75 65 84 75 69 65 51 43 35 30 20 16 12 8 4 8 6 5 2 359 352 345 342 339 345 334 319
112 115 97 97 85 60 65 55 72 71 74 60 51 44 29 17 21 10 13 5 10 9 5 4 4 356 356 354 355 345 349 341
109 103 99 92 88 72 65 46 43 64 75 67 48 49 28 29 21 11 10 9 11 12 5 3 8 1 358 7 1 357 2 354
117 112 101 84 92 85 86 65 38 63 69 57 38 49 49 43 25 21 11 8 18 18 12 9 8 12 6 8 10 8 8 9
114 97 90 79 75 97 82 72 59 44 79 60 51 53 50 49 34 28 26 20 18 24 17 15 18 19 13 9 14 11 10 13
129 111 105 99 83 114 110 90 76 56 70 97 71 42 43 52 37 33 36 34 33 23 16 24 29 20 16 16 13 16 16 14
106 121 126 107 94 104 126 139 105 90 39 69 122 76 350 50 52 15 52 47 39 22 21 28 28 30 18 18 18 17 18 14
140 127 139 134 143 114 129 121 137 126 132 191 128 162 293 334 72 304 92 70 33 28 26 25 14 25 33 25 16 21 24 18
155 148 161 146 140 150 163 194 158 157 179 131 47 81 203 327 27 61 70 86 59 42 30 23 11 11 41 34 27 21 23 24
163 164 163 163 170 183 161 183 179 144 164 180 167 78 77 72 61 59 57 50 53 50 40 28 10 20 50 44 37 26 27 28
163 163 168 178 183 187 184 182 171 155 124 123 109 103 86 77 72 66 64 57 45 48 41 35 30 22 44 49 50 39 30 34
160 164 168 174 184 176 144 143 134 127 120 104 90 80 81 85 82 78 70 65 52 46 49 38 38 32 32 42 49 44 38 30
154 155 160 159 140 132 136 124 107 99 90 82 78 80 73 64 81 91 85 84 73 56 49 43 40 41 40 38 40 40 39 34